DW8661 Madrid ES current weather conditions

sailwx.info

Wind from 088 at 6 knots

Air temperature 26.7° C
Dewpoint 11.6° C

Last reported at 2019-Aug-25 22:00 UTC.
Time now 2019-Aug-25 22:51 UTC

Location: N 40°29' W 003°44'.
View on Google Maps.

See reports from other nearby stations

  
Tides and Currents Weather Stations Pressure Air Temp Water Temp Dewpoint Dewpoint Depression Visibility Wind Speed Wind Dir Waves Ship Positions
date/time (UTC)wind fromknots sea level pressurealtimeterstation pressurevisibilityair tempwater tempwave heightnotes
2019-Aug-25 22:00 088 6 26.7
2019-Aug-25 21:45 117 8 26.7
2019-Aug-25 21:30 148 6 27.2
2019-Aug-25 21:15 192 2 27.8
2019-Aug-25 21:00 266 1 28.3
2019-Aug-25 20:45 112 2 28.3
2019-Aug-25 20:30 173 4 28.3
2019-Aug-25 20:15 144 2 28.9
2019-Aug-25 20:02 133 2 28.9
2019-Aug-25 19:46 144 5 28.9
2019-Aug-25 19:31 144 3 28.9
2019-Aug-25 19:16 161 4 29.4
2019-Aug-25 19:01 168 3 29.4
2019-Aug-25 18:46 120 5 30.0
2019-Aug-25 18:31 110 7 30.0
2019-Aug-25 18:16 173 4 30.0
2019-Aug-25 18:01 168 4 30.6
2019-Aug-25 17:47 200 1 30.6
2019-Aug-25 17:32 150 2 30.6
2019-Aug-25 17:16 171 2 30.6
2019-Aug-25 17:02 125 5 30.6
2019-Aug-25 16:46 126 5 30.6
2019-Aug-25 16:32 166 4 31.1
2019-Aug-25 16:16 155 2 30.6
2019-Aug-25 16:01 091 2 30.6
2019-Aug-25 15:47 144 2 30.6
2019-Aug-25 15:31 126 2 30.6
2019-Aug-25 15:16 150 1 31.1
2019-Aug-25 15:01 119 4 30.6
2019-Aug-25 14:46 119 2 31.1
2019-Aug-25 14:31 088 4 31.1
2019-Aug-25 14:16 184 4 31.1
2019-Aug-25 14:00 154 4 31.1
2019-Aug-25 13:45 158 2 30.6
2019-Aug-25 13:31 209 31.1
2019-Aug-25 13:16 116 0 30.6
2019-Aug-25 13:00 140 2 29.4
2019-Aug-25 12:45 180 1 29.4
2019-Aug-25 12:31 142 2 28.9
2019-Aug-25 12:15 089 29.4
2019-Aug-25 12:00 117 1 28.9
2019-Aug-25 11:46 101 0 28.3
2019-Aug-25 11:30 169 2 27.8
2019-Aug-25 11:15 080 0 27.8
2019-Aug-25 11:00 119 0 27.2
2019-Aug-25 10:45 107 26.7
2019-Aug-25 10:30 067 26.7
2019-Aug-25 10:03 076 1 25.6
2019-Aug-25 09:46 059 0 25.6
2019-Aug-25 09:31 063 0 25.0
2019-Aug-25 09:16 042 0 23.9
2019-Aug-25 09:01 053 0 23.3
2019-Aug-25 08:46 079 1 23.3
2019-Aug-25 08:31 057 2 22.8
2019-Aug-25 08:15 088 0 22.8
2019-Aug-25 08:01 056 1 22.2
2019-Aug-25 07:46 066 2 22.2
2019-Aug-25 07:31 080 0 22.8
2019-Aug-25 07:16 068 2 22.2
2019-Aug-25 07:00 024 2 21.7
2019-Aug-25 06:45 067 5 21.7
2019-Aug-25 06:30 052 0 21.7
2019-Aug-25 06:15 084 21.7
2019-Aug-25 06:00 024 0 21.1
2019-Aug-25 05:45 036 2 21.1
2019-Aug-25 05:30 036 3 21.1
2019-Aug-25 05:15 061 2 21.7
2019-Aug-25 05:00 087 1 21.7
2019-Aug-25 04:45 081 1 21.7
2019-Aug-25 04:30 065 2 21.7
2019-Aug-25 04:15 076 1 22.2
2019-Aug-25 04:00 079 0 22.2
2019-Aug-25 03:45 350 1 22.2
2019-Aug-25 03:32 027 2 22.2
2019-Aug-25 03:17 073 0 22.8
2019-Aug-25 03:01 020 22.8
2019-Aug-25 02:48 011 22.8
2019-Aug-25 02:31 185 23.3
2019-Aug-25 02:17 063 23.3
2019-Aug-25 02:01 214 23.3
2019-Aug-25 01:47 226 23.3
2019-Aug-25 01:31 194 1 23.3
2019-Aug-25 01:17 281 1 23.9
2019-Aug-25 01:01 144 9 23.9
2019-Aug-25 00:46 125 9 24.4
2019-Aug-25 00:31 125 8 24.4
2019-Aug-25 00:16 103 6 25.0
2019-Aug-25 00:00 150 6 25.6
2019-Aug-24 23:46 164 5 25.6
2019-Aug-24 23:30 155 5 26.1
2019-Aug-24 23:15 086 26.1
2019-Aug-24 23:01 213 26.1
2019-Aug-24 22:45 212 26.7
2019-Aug-24 22:30 212 26.7
2019-Aug-24 22:15 194 27.2
2019-Aug-24 22:01 183 26.7
2019-Aug-24 21:45 183 26.7
2019-Aug-24 21:30 183 27.2
2019-Aug-24 21:15 183 27.2
2019-Aug-24 21:00 183 28.3
2019-Aug-24 20:45 183 28.3
2019-Aug-24 20:30 183 28.9
2019-Aug-24 20:15 183 29.4
2019-Aug-24 20:00 183 30.0
2019-Aug-24 19:45 183 30.0
2019-Aug-24 19:30 183 30.6
2019-Aug-24 19:15 182 30.6
2019-Aug-24 19:00 182 31.1
2019-Aug-24 18:45 179 31.1
2019-Aug-24 18:30 182 31.1
2019-Aug-24 18:15 205 31.1
2019-Aug-24 18:00 160 31.7
2019-Aug-24 17:45 153 0 31.7
2019-Aug-24 17:30 214 1 31.7
2019-Aug-24 17:15 159 1 32.2
2019-Aug-24 17:00 171 32.2
2019-Aug-24 16:45 127 0 32.2
2019-Aug-24 16:32 148 1 32.2
2019-Aug-24 16:16 140 32.2
2019-Aug-24 16:02 206 2 32.2
2019-Aug-24 15:47 213 0 32.2
2019-Aug-24 15:32 190 1 32.2
2019-Aug-24 15:18 201 0 32.8
2019-Aug-24 15:02 206 32.2
2019-Aug-24 14:47 144 0 32.2
2019-Aug-24 14:31 175 0 31.7
2019-Aug-24 14:16 175 0 31.7
2019-Aug-24 14:02 198 1 31.7
2019-Aug-24 13:47 235 1 31.1
2019-Aug-24 13:31 164 31.1
2019-Aug-24 13:16 175 2 30.6
2019-Aug-24 13:01 154 0 30.0
2019-Aug-24 12:46 182 1 30.0
2019-Aug-24 12:30 171 0 30.0
2019-Aug-24 12:16 186 0 29.4
2019-Aug-24 12:01 169 0 28.9
2019-Aug-24 11:45 202 0 28.9
2019-Aug-24 11:30 184 28.3
2019-Aug-24 11:15 164 27.2
2019-Aug-24 11:00 171 0 27.2
2019-Aug-24 10:45 170 1 26.7
2019-Aug-24 10:30 096 1 26.1
2019-Aug-24 10:15 176 0 26.1
2019-Aug-24 10:00 136 1 25.0
2019-Aug-24 09:48 144 25.6
2019-Aug-24 09:32 157 0 25.0
2019-Aug-24 09:16 188 25.0
2019-Aug-24 09:01 068 25.0
2019-Aug-24 08:46 078 24.4
2019-Aug-24 08:31 102 23.9
2019-Aug-24 08:16 069 23.9
2019-Aug-24 08:01 092 23.9
2019-Aug-24 07:45 080 23.3
2019-Aug-24 07:30 083 22.8
2019-Aug-24 07:16 088 22.8
2019-Aug-24 07:00 088 22.8
2019-Aug-24 06:45 088 21.7
2019-Aug-24 06:30 085 21.7
2019-Aug-24 06:15 075 21.1
2019-Aug-24 06:00 075 21.1
2019-Aug-24 05:45 069 21.1
2019-Aug-24 05:30 068 21.1
2019-Aug-24 05:16 068 21.1
2019-Aug-24 05:02 068 21.1
2019-Aug-24 04:46 069 21.1
2019-Aug-24 04:34 017 21.1
2019-Aug-24 04:16 041 0 21.1
2019-Aug-24 04:02 027 0 21.1
2019-Aug-24 03:47 027 2 21.7
2019-Aug-24 03:31 045 21.7
2019-Aug-24 03:17 029 21.7
2019-Aug-24 03:02 022 0 21.7
2019-Aug-24 02:46 360 22.2
2019-Aug-24 02:32 122 22.8
2019-Aug-24 02:16 122 22.8
2019-Aug-24 02:01 123 22.8
2019-Aug-24 01:46 117 23.3
2019-Aug-24 01:31 150 1 23.3
2019-Aug-24 01:17 109 1 23.9
2019-Aug-24 01:01 138 3 24.4
2019-Aug-24 00:46 173 1 25.0
2019-Aug-24 00:31 169 24.4
2019-Aug-24 00:15 146 23.3
2019-Aug-24 00:01 155 23.3
2019-Aug-23 23:45 156 23.9
2019-Aug-23 23:30 155 24.4
2019-Aug-23 23:15 156 25.0
2019-Aug-23 23:00 155 25.0
2019-Aug-23 22:45 355 25.0
2019-Aug-23 22:30 355 25.6
2019-Aug-23 22:16 323 25.6
2019-Aug-23 22:00 200 25.6